カタログに戻る

SL-8 R/B

運用中PO
NORAD 11586·ROCKET BODY·🇷🇺 Russia

打ち上げ Oct 16, 1979 から Plesetsk Cosmodrome

Loading…

次のパス (今後24時間)

TLE

最新Source: Space-Track

元期: Sep 13, 2026, 23:39 UTC

1 11586U 79090B   26256.98562505 -.00000019  00000-0 -33429-4 0  9994
2 11586  82.9398  75.5615 0028351  94.2347 266.2053 13.79327503339772

AllMySatでSL-8 R/Bをリアルタイム追跡

Download on the App Store